Location: Unspecified
(0.0000°N, 0.0000°E)
Time: 11:16:47
(UTC+00:00)

Vanguard 1 - Pass Details

Date: 21 November 2019
Orbit: 651 x 3832 km, 34.3° (Epoch: 13 December)

Event Time Altitude Azimuth Distance (km) Brightness Sun altitude
Rises 22:38:09 0° 234° (SW) 5,233 14.1 -64.0°
Reaches altitude 10° 22:43:50 10° 212° (SSW) 4,883 13.8 -64.9°
Maximum altitude 22:51:16 15° 181° (S) 5,191 13.8 -65.9°
Drops below altitude 10° 23:00:40 10° 151° (SSE) 6,336 14.2 -67.1°
Sets 23:10:43 0° 131° (SE) 7,833 14.8 -68.2°
